[[{"header":{"parameterUnit":"m.s-1","parameterCategory":1,"la1":30.2991,"la2":30.254,"lo1":-89.0895,"lo2":-89.0444,"dy":0.0017,"dx":0.0017,"nx":28,"ny":28,"refTime":"2024-04-21T09:00:00:Z","depth":0,"parameterNumber":2,"parameterNumberName":"U-component_of_WINDS"},"data":[0,0,0,0,0,0,0,0,0,0,0,0,0,0,0,0,0,0,0,0,0,0,0,0,0,0,0,0,0,0,0,0,0,0,0,0,0,0,0,0,0,0,0,0,0,0,0,0,0,0,0,0,0,0,0,0,0,0,0.6728,0.6727,0,0.6616,0.6615,0.6614,0.663,0.6631,0.6633,0.6635,0.6517,0.6512,0.6508,0,0,0,0,0,0,0,0,0,0,0,0,0,0.6953,0.6949,0.6728,0.6727,0.6725,0.6616,0.6615,0.6613,0.6629,0.6632,0.6634,0.6636,0.6519,0.6513,0.6507,0,0,0,0,0,0,0,0,0,0,0,0,0,0.685,0.6948,0.6728,0.672,0.6718,0.6617,0.6615,0.6613,0.6629,0.6632,0.6634,0.6637,0.6521,0.6514,0.6506,0.6404,0,0,0.6484,0.6481,0,0,0,0,0,0,0,0,0.6856,0.6841,0.6723,0.6721,0.6718,0.664,0.6651,0.6543,0.6628,0.6663,0.6635,0.6638,0.6555,0.6545,0.6518,0.6399,0.6394,0.6483,0.6479,0.6476,0.6473,0,0,0,0,0,0,0,0.6863,0.6846,0.6684,0.6721,0.6718,0.6721,0.671,0.6631,0.6594,0.666,0.6661,0.6648,0.6555,0.6525,0.6515,0.6392,0.6483,0.6477,0.6472,0.6469,0.6185,0.6182,0,0,0,0,0,0,0.6873,0.6852,0.6687,0.668,0.6795,0.6715,0.6702,0.6662,0.6595,0.6588,0.6645,0.6649,0.6536,0.6524,0.6511,0.6388,0.6476,0.6469,0.6465,0.6188,0.6184,0.6181,0,0,0,0,0,0,0.6877,0.6858,0.6692,0.6766,0.6746,0.6708,0.6663,0.6658,0.6629,0.6584,0.6578,0.6622,0.6538,0.6522,0.6431,0.6384,0.6465,0.6459,0.6192,0.6187,0.6182,0.614,0,0,0,0,0,0,0.6884,0.6859,0.682,0.6766,0.6742,0.6614,0.666,0.6654,0.6617,0.662,0.6561,0.6553,0.6539,0.6442,0.6424,0.6375,0.6453,0.6196,0.6189,0.6184,0.6146,0.6135,0.6125,0,0,0,0,0,0.6892,0.6812,0.6818,0.6798,0.6692,0.6611,0.6597,0.6583,0.6613,0.6573,0.6545,0.6555,0.6393,0.6433,0.6412,0.6361,0.6198,0.6191,0.6184,0.615,0.6137,0.6126,0,0,0,0,0,0,0.6861,0.6805,0.6811,0.6711,0.6666,0.6614,0.6564,0.657,0.6514,0.6519,0.6504,0.649,0.6399,0.6371,0.6417,0.626,0.6299,0.6288,0.6281,0.6268,0.6258,0.6266,0.6447,0,0,0,0,0,0.6843,0.6782,0.6736,0.6653,0.663,0.6601,0.6565,0.6558,0.651,0.6491,0.6456,0.6408,0.6346,0.6305,0.6246,0.6143,0.613,0.6097,0.6087,0.6079,0.6069,0.6012,0.5997,0.6157,0.6157,0.6157,0,0,0.6804,0.6766,0.6728,0.6646,0.661,0.6547,0.6584,0.6516,0.6469,0.648,0.6393,0.6366,0.6311,0.6214,0.6169,0.6188,0.6022,0.607,0.6064,0.6058,0.6004,0.5988,0.5975,0.6152,0.6153,0.6154,0,0,0.6701,0.6667,0.6594,0.6558,0.6504,0.6485,0.6468,0.6415,0.6398,0.6311,0.6318,0.6261,0.6155,0.6116,0.6083,0.5968,0.5975,0.5949,0.5895,0.584,0.5828,0.5817,0.5775,0.5761,0.5939,0.5939,0.5939,0,0.666,0.6566,0.6555,0.6486,0.645,0.6459,0.6385,0.635,0.6278,0.6253,0.6275,0.6143,0.6107,0.6001,0.5974,0.5946,0.5925,0.5955,0.5831,0.5819,0.5809,0.5769,0.5754,0.5936,0.5937,0.5937,0.5937,0,0.6518,0.6453,0.64,0.6333,0.6291,0.6219,0.6197,0.6156,0.6153,0.6133,0.6044,0.6001,0.5934,0.5909,0.5905,0.5802,0.5816,0.5835,0.5874,0.5791,0.5753,0.5738,0.5932,0.5933,0.5934,0.5935,0,0,0.639,0.632,0.63,0.627,0.6212,0.6161,0.6091,0.6027,0.5991,0.5942,0.5883,0.5794,0.5812,0.5773,0.5766,0.5718,0.563,0.5743,0.5741,0.5723,0.5514,0.55,0.5483,0.5635,0.5632,0.563,0.5519,0,0.6281,0.6158,0.6147,0.6036,0.5976,0.5985,0.5923,0.5881,0.586,0.5806,0.5782,0.5719,0.5747,0.5725,0.5678,0.565,0.5588,0.5658,0.5579,0.5576,0.5591,0.5463,0.5448,0.5345,0.5504,0.5502,0.55,0,0.6138,0.6086,0.597,0.5921,0.5896,0.5841,0.5782,0.573,0.5682,0.567,0.5629,0.5628,0.5556,0.5599,0.5499,0.5547,0.5514,0.5496,0.5492,0.5483,0.5532,0.545,0.5311,0.5296,0.5477,0.5479,0.548,0,0.6056,0.5958,0.5875,0.585,0.5791,0.5753,0.5726,0.5682,0.5644,0.5592,0.5568,0.5508,0.5475,0.5428,0.5411,0.5445,0.5311,0.5354,0.5299,0.5299,0.5269,0.5271,0.5123,0.5249,0.525,0.525,0.525,0,0.5935,0.5863,0.5838,0.5787,0.5707,0.5696,0.5617,0.5592,0.5553,0.5497,0.5501,0.5449,0.543,0.5375,0.5361,0.528,0.5265,0.5253,0.525,0.5252,0.5254,0.5229,0.5236,0.5246,0.5247,0.5247,0.5248,0,0.583,0.581,0.5721,0.5674,0.5661,0.5604,0.5563,0.5514,0.5495,0.5425,0.5408,0.5377,0.5312,0.5292,0.5212,0.5203,0.5109,0.5112,0.5125,0.5124,0.5071,0.5076,0.4901,0.4877,0.502,0.5019,0.5018,0,0.5754,0.5699,0.5647,0.5611,0.5583,0.5525,0.5487,0.5474,0.5434,0.5377,0.5335,0.5271,0.5219,0.5115,0.5085,0.5025,0.5027,0.497,0.5018,0.5022,0.5026,0.5029,0.5024,0.496,0.4959,0.4958,0.4957,0,0.562,0.5614,0.556,0.5503,0.5459,0.5413,0.5368,0.5338,0.5319,0.5274,0.5209,0.5169,0.509,0.5026,0.4965,0.4938,0.4943,0.4942,0.4926,0.4927,0.4937,0.4931,0.51,0.4946,0.4947,0.4948,0.4948,0.4949,0.5527,0.5479,0.5435,0.5376,0.5342,0.5301,0.5253,0.5229,0.5174,0.5109,0.5105,0.5034,0.4989,0.4909,0.4878,0.4822,0.4839,0.4816,0.481,0.4804,0.48,0.4947,0.4811,0.4812,0.4812,0.4812,0.4812,0,0.5394,0.5367,0.5312,0.5251,0.5204,0.5216,0.5168,0.5128,0.5066,0.5024,0.4974,0.4899,0.4838,0.4805,0.4744,0.4705,0.4707,0.469,0.4692,0.4686,0.4789,0.4809,0.469,0.469,0.469,0.469,0.469,0.469,0.5319,0.5239,0.5227,0.5131,0.5104,0.5036,0.5008,0.497,0.4937,0.4854,0.4803,0.4783,0.4744,0.4681,0.4626,0.4617,0.4595,0.4576,0.4569,0.4666,0.4678,0.469,0.4709,0.4571,0.4571,0.4471,0.447,0.4469]},{"header":{"parameterUnit":"m.s-1","parameterCategory":1,"la1":30.2991,"la2":30.254,"lo1":-89.0895,"lo2":-89.0444,"dy":0.0017,"dx":0.0017,"nx":28,"ny":28,"refTime":"2024-04-21T09:00:00:Z","depth":0,"parameterNumber":3,"parameterNumberName":"V-component_of_WINDS"},"data":[0,0,0,0,0,0,0,0,0,0,0,0,0,0,0,0,0,0,0,0,0,0,0,0,0,0,0,0,0,0,0,0,0,0,0,0,0,0,0,0,0,0,0,0,0,0,0,0,0,0,0,0,0,0,0,0,0,0,-2.1807,-2.1806,0,-2.1703,-2.1702,-2.1701,-2.1648,-2.1648,-2.1648,-2.1648,-2.1537,-2.1534,-2.1531,0,0,0,0,0,0,0,0,0,0,0,0,0,-2.1957,-2.1954,-2.1807,-2.1806,-2.1805,-2.1703,-2.1702,-2.17,-2.1648,-2.1648,-2.1648,-2.1648,-2.1538,-2.1535,-2.1531,0,0,0,0,0,0,0,0,0,0,0,0,0,-2.1876,-2.1954,-2.1808,-2.1767,-2.1762,-2.1703,-2.1702,-2.17,-2.1648,-2.1648,-2.1648,-2.1648,-2.1539,-2.1535,-2.1531,-2.1504,0,0,-2.1517,-2.1515,0,0,0,0,0,0,0,0,-2.1881,-2.1871,-2.1774,-2.1769,-2.1764,-2.1689,-2.1714,-2.1634,-2.1648,-2.1691,-2.1648,-2.1648,-2.1587,-2.1579,-2.1559,-2.1499,-2.1494,-2.1517,-2.1514,-2.1512,-2.1511,0,0,0,0,0,0,0,-2.1886,-2.1875,-2.1766,-2.1773,-2.1766,-2.1752,-2.174,-2.1698,-2.164,-2.1687,-2.1683,-2.1672,-2.1584,-2.1564,-2.1556,-2.1492,-2.1517,-2.1513,-2.151,-2.1509,-2.1403,-2.1403,0,0,0,0,0,0,-2.1899,-2.188,-2.1769,-2.1763,-2.1824,-2.1749,-2.1736,-2.1713,-2.1641,-2.163,-2.1672,-2.167,-2.1571,-2.1561,-2.1552,-2.1515,-2.1512,-2.1508,-2.1506,-2.1403,-2.1403,-2.1403,0,0,0,0,0,0,-2.1903,-2.189,-2.1773,-2.182,-2.1804,-2.1747,-2.1721,-2.1711,-2.169,-2.1629,-2.1618,-2.1662,-2.1571,-2.1558,-2.1516,-2.1511,-2.1506,-2.1502,-2.1403,-2.1403,-2.1403,-2.1442,0,0,0,0,0,0,-2.1907,-2.1891,-2.1882,-2.182,-2.1802,-2.1741,-2.172,-2.1709,-2.1683,-2.1679,-2.1617,-2.1606,-2.157,-2.1523,-2.1512,-2.1504,-2.1499,-2.1404,-2.1403,-2.1403,-2.1441,-2.1443,-2.1445,0,0,0,0,0,-2.1913,-2.1897,-2.1882,-2.1869,-2.1789,-2.1741,-2.173,-2.169,-2.1683,-2.1672,-2.1633,-2.1608,-2.1513,-2.1519,-2.1506,-2.1497,-2.1404,-2.1403,-2.1403,-2.144,-2.1443,-2.1445,0,0,0,0,0,0,-2.1958,-2.1888,-2.1871,-2.1834,-2.1794,-2.1732,-2.1717,-2.1694,-2.1654,-2.1652,-2.1602,-2.1588,-2.155,-2.1519,-2.1527,-2.1467,-2.1456,-2.1453,-2.1489,-2.1491,-2.1493,-2.15,-2.1495,0,0,0,0,0,-2.1964,-2.1932,-2.1872,-2.1845,-2.1826,-2.1775,-2.1753,-2.1725,-2.1681,-2.1663,-2.1621,-2.1577,-2.1537,-2.1512,-2.1472,-2.1436,-2.1421,-2.1424,-2.1426,-2.1428,-2.1425,-2.1402,-2.1402,-2.1401,-2.1401,-2.1402,0,0,-2.1975,-2.1933,-2.1916,-2.1853,-2.1819,-2.1785,-2.1761,-2.1727,-2.1701,-2.1657,-2.1615,-2.1583,-2.1531,-2.1491,-2.1472,-2.1464,-2.1422,-2.1427,-2.1429,-2.1426,-2.1402,-2.1402,-2.1402,-2.1401,-2.1401,-2.1401,0,0,-2.1979,-2.1945,-2.1918,-2.1884,-2.1833,-2.1799,-2.1793,-2.1734,-2.1711,-2.1668,-2.1634,-2.1602,-2.1535,-2.1499,-2.1472,-2.1461,-2.1436,-2.1449,-2.146,-2.1438,-2.1438,-2.1438,-2.1433,-2.1432,-2.1447,-2.1447,-2.1448,0,-2.1999,-2.1949,-2.1907,-2.1875,-2.1848,-2.1808,-2.178,-2.1748,-2.1686,-2.1667,-2.1661,-2.1575,-2.1537,-2.1488,-2.1485,-2.1465,-2.1455,-2.1456,-2.1442,-2.1441,-2.144,-2.1435,-2.1433,-2.1449,-2.1449,-2.1449,-2.1449,0,-2.1976,-2.1941,-2.1926,-2.1868,-2.1839,-2.1809,-2.1761,-2.1737,-2.1711,-2.1678,-2.1634,-2.1587,-2.1537,-2.1523,-2.1497,-2.147,-2.1467,-2.1451,-2.1439,-2.1443,-2.1437,-2.1434,-2.1452,-2.1451,-2.1451,-2.145,0,0,-2.2005,-2.1924,-2.1919,-2.1892,-2.1832,-2.1803,-2.1771,-2.1722,-2.1702,-2.166,-2.163,-2.1574,-2.1559,-2.1528,-2.1498,-2.1479,-2.1472,-2.1466,-2.1464,-2.1468,-2.1437,-2.1448,-2.1447,-2.1456,-2.1455,-2.1455,-2.1441,0,-2.2,-2.1941,-2.1902,-2.1858,-2.1825,-2.1786,-2.1757,-2.1716,-2.1683,-2.1649,-2.1612,-2.1573,-2.1557,-2.1538,-2.1518,-2.1478,-2.1465,-2.1478,-2.1426,-2.1425,-2.144,-2.1444,-2.1456,-2.1445,-2.1438,-2.1438,-2.1438,0,-2.1985,-2.1946,-2.1899,-2.1841,-2.1826,-2.1801,-2.1753,-2.1721,-2.1673,-2.165,-2.1616,-2.1586,-2.1547,-2.1539,-2.1485,-2.1495,-2.1471,-2.1448,-2.1446,-2.1439,-2.1431,-2.1436,-2.1441,-2.1439,-2.1434,-2.1434,-2.1434,0,-2.201,-2.1945,-2.1908,-2.1886,-2.1818,-2.1801,-2.1772,-2.1724,-2.1697,-2.1655,-2.1636,-2.159,-2.1564,-2.1527,-2.1484,-2.1482,-2.1434,-2.1422,-2.1413,-2.1414,-2.1404,-2.1405,-2.1405,-2.1391,-2.1391,-2.1391,-2.1391,0,-2.2008,-2.198,-2.1918,-2.1895,-2.1863,-2.1818,-2.1786,-2.1753,-2.1711,-2.168,-2.1643,-2.1614,-2.1559,-2.1523,-2.1489,-2.1449,-2.1438,-2.1417,-2.1408,-2.142,-2.1422,-2.1403,-2.1402,-2.139,-2.139,-2.139,-2.139,0,-2.203,-2.1987,-2.1944,-2.1884,-2.1868,-2.1847,-2.1794,-2.1769,-2.1735,-2.1696,-2.1684,-2.1629,-2.1585,-2.1538,-2.1478,-2.1455,-2.1415,-2.1403,-2.1432,-2.1427,-2.142,-2.1421,-2.1406,-2.1401,-2.1392,-2.1392,-2.1392,0,-2.2031,-2.2009,-2.1946,-2.1924,-2.1896,-2.1859,-2.1832,-2.1786,-2.1758,-2.1702,-2.1684,-2.1637,-2.1597,-2.1527,-2.1481,-2.1434,-2.142,-2.1418,-2.1413,-2.1425,-2.1419,-2.142,-2.1417,-2.142,-2.142,-2.142,-2.1421,0,-2.2037,-2.2017,-2.1979,-2.1934,-2.1903,-2.1865,-2.1825,-2.1808,-2.1754,-2.1725,-2.168,-2.1649,-2.1587,-2.154,-2.1488,-2.1455,-2.1428,-2.1423,-2.1418,-2.1429,-2.1446,-2.1436,-2.1436,-2.1423,-2.1423,-2.1423,-2.1423,-2.1422,-2.2047,-2.2026,-2.1978,-2.1937,-2.1903,-2.1867,-2.184,-2.1803,-2.1765,-2.1712,-2.1687,-2.1641,-2.1592,-2.1519,-2.1487,-2.145,-2.1442,-2.1435,-2.1433,-2.1432,-2.1435,-2.1453,-2.144,-2.144,-2.144,-2.1439,-2.1439,0,-2.205,-2.2018,-2.1981,-2.1927,-2.1895,-2.1874,-2.1828,-2.1802,-2.1763,-2.172,-2.1682,-2.1629,-2.1583,-2.1533,-2.1484,-2.1463,-2.1449,-2.1452,-2.1452,-2.1445,-2.1445,-2.1454,-2.1464,-2.1464,-2.1464,-2.1464,-2.1464,-2.1464,-2.2048,-2.201,-2.1984,-2.1928,-2.1895,-2.1851,-2.1827,-2.1792,-2.1758,-2.1701,-2.1663,-2.1632,-2.1585,-2.1532,-2.1489,-2.1475,-2.1458,-2.1464,-2.1447,-2.1447,-2.1445,-2.1443,-2.1451,-2.1461,-2.1461,-2.145,-2.1449,-2.1449]}]]